Weather History for KVAD - October, 2012

Change the Weather History Date:

Monday, October 8, 2012

  Actual Average Record
Temperature  
Mean Temperature 69 °F -  
Max Temperature 75 °F 78 °F 89 °F (2002)
Min Temperature 62 °F 60 °F 54 °F (2010)
Cooling Degree Days 4    
Growing Degree Days 19 (Base 50)    
Moisture  
Dew Point 65 °F    
Average Humidity 86    
Maximum Humidity 100    
Minimum Humidity 73    
Precipitation  
Precipitation 0.12 in - - ()
Sea Level Pressure  
Sea Level Pressure 30.03 in    
Wind  
Wind Speed 6 mph (NNE)    
Max Wind Speed 10 mph    
Max Gust Speed -    
Visibility 10 miles    
Events Rain    
Averages and records for this station are not official NWS values.
T = Trace of Precipitation, MM = Missing Value Source: NWS Daily Summary

Daily Weather History Graph

Daily Weather History Graph

Search for Another Location

Airport or City:

Trip Planner

Search our weather history database for the weather conditions in past years. The results will help you decide how hot, cold, wet, or windy it might be!

Date:

Astronomy

Oct. 08, 2012 Rise Set
Actual Time 7:31 AM EDT 7:08 PM EDT
Civil Twilight 7:06 AM EDT 7:32 PM EDT
Nautical Twilight 6:38 AM EDT 8:00 PM EDT
Astronomical Twilight 6:10 AM EDT 8:28 PM EDT
Moon 12:35 AM EDT (10/8) 2:33 PM EDT (10/8)
Length of Visible Light 12h 26m
Length of Day
11h 37m
Waning Gibbous, 46% of the Moon is Illuminated
Oct 8
Waning Gibbous
Oct 15
New
Oct 21
First Quarter
Oct 29
Full
Nov 6
Last Quarter

Hourly Weather History & Observations

Time (EDT) Temp. Dew Point Humidity Pressure Visibility Wind Dir Wind Speed Gust Speed Precip Events Conditions
12:55 AM 70.2 °F 64.9 °F 83% 30.00 in 10.0 mi North 9.2 mph - N/A   Clear
1:55 AM 68.7 °F 63.7 °F 84% 30.01 in 10.0 mi North 5.8 mph - N/A   Clear
2:55 AM 67.8 °F 63.0 °F 84% 29.98 in 10.0 mi North 6.9 mph - N/A   Clear
3:55 AM 66.7 °F 62.4 °F 86% 29.99 in 10.0 mi Calm Calm - N/A   Clear
4:55 AM 65.7 °F 62.8 °F 90% 29.99 in 10.0 mi Variable 5.8 mph - N/A   Clear
5:55 AM 64.9 °F 61.5 °F 89% 29.99 in 10.0 mi North 8.1 mph - N/A   Clear
6:55 AM 64.2 °F 61.3 °F 90% 30.01 in 10.0 mi North 4.6 mph - N/A   Mostly Cloudy
7:55 AM 63.5 °F 60.4 °F 90% 30.03 in 10.0 mi NNW 6.9 mph - N/A   Mostly Cloudy
8:55 AM 64.0 °F 60.1 °F 87% 30.04 in 10.0 mi North 4.6 mph - N/A   Scattered Clouds
9:55 AM 66.7 °F 60.6 °F 81% 30.05 in 10.0 mi NE 4.6 mph - N/A   Clear
10:53 AM 69.8 °F 62.6 °F 78% 30.05 in 10.0 mi NNE 3.5 mph - N/A   Mostly Cloudy
10:55 AM 70.5 °F 63.1 °F 77% 30.05 in 10.0 mi Variable 3.5 mph - N/A   Mostly Cloudy
11:30 AM 71.6 °F 64.4 °F 78% 30.06 in 10.0 mi Calm Calm - N/A   Scattered Clouds
11:55 AM 73.0 °F 64.8 °F 75% 30.06 in 10.0 mi NNW 3.5 mph - N/A   Mostly Cloudy
12:55 PM 73.8 °F 65.1 °F 74% 30.05 in 10.0 mi North 3.5 mph - N/A   Scattered Clouds
1:51 PM 75.2 °F 66.2 °F 73% 30.03 in 10.0 mi NW 4.6 mph - N/A   Overcast
1:53 PM 75.2 °F 66.2 °F 73% 30.03 in 10.0 mi NW 4.6 mph - N/A   Overcast
1:55 PM 74.3 °F 65.8 °F 75% 30.03 in 10.0 mi NNW 5.8 mph - N/A   Overcast
2:28 PM 73.4 °F 68.0 °F 83% 30.02 in 10.0 mi NNW 10.4 mph - N/A Rain Light Rain
2:47 PM 71.6 °F 68.0 °F 88% 30.02 in 10.0 mi NNW 5.8 mph - N/A   Overcast
2:49 PM 71.6 °F 68.0 °F 88% 30.01 in 10.0 mi NNW 5.8 mph - N/A Rain Light Rain
2:55 PM 72.3 °F 68.0 °F 86% 30.01 in 10.0 mi North 8.1 mph - 0.01 in Rain Light Rain
3:16 PM 71.6 °F 69.8 °F 94% 30.00 in 10.0 mi North 6.9 mph - N/A   Scattered Clouds
3:25 PM 71.6 °F 71.6 °F 100% 30.00 in 10.0 mi North 9.2 mph - N/A   Scattered Clouds
3:40 PM 71.6 °F 69.8 °F 94% 30.00 in 10.0 mi North 8.1 mph - N/A   Mostly Cloudy
3:48 PM 73.4 °F 69.8 °F 88% 29.99 in 10.0 mi NNE 6.9 mph - N/A   Scattered Clouds
3:55 PM 73.2 °F 68.9 °F 86% 29.99 in 10.0 mi North 5.8 mph - 0.11 in   Scattered Clouds
4:55 PM 74.8 °F 68.0 °F 79% 29.99 in 10.0 mi NNE 4.6 mph - N/A   Scattered Clouds
5:55 PM 74.1 °F 68.0 °F 81% 29.99 in 10.0 mi ENE 5.8 mph - N/A   Mostly Cloudy
6:55 PM 72.7 °F 66.7 °F 82% 30.01 in 10.0 mi NE 8.1 mph - N/A   Overcast
7:30 PM 69.8 °F 66.2 °F 88% 30.02 in 10.0 mi NE 6.9 mph - N/A   Mostly Cloudy
7:55 PM 69.6 °F 65.7 °F 87% 30.03 in 10.0 mi NNE 8.1 mph - N/A   Mostly Cloudy
7:59 PM 69.8 °F 66.2 °F 88% 30.03 in 10.0 mi NNE 5.8 mph - N/A   Scattered Clouds
8:55 PM 67.1 °F 63.9 °F 89% 30.04 in 10.0 mi NE 6.9 mph - N/A   Clear
9:55 PM 65.3 °F 63.3 °F 93% 30.06 in 10.0 mi NE 5.8 mph - N/A   Scattered Clouds
10:48 PM 64.4 °F 62.6 °F 94% 30.08 in 10.0 mi NE 5.8 mph - N/A   Mostly Cloudy
10:55 PM 63.7 °F 62.2 °F 95% 30.09 in 10.0 mi NE 4.6 mph - N/A   Mostly Cloudy
10:58 PM 64.4 °F 62.6 °F 94% 30.09 in 10.0 mi NE 4.6 mph - N/A   Mostly Cloudy
11:05 PM 64.4 °F 62.6 °F 94% 30.09 in 10.0 mi NE 4.6 mph - N/A   Mostly Cloudy
11:55 PM 63.0 °F 60.8 °F 93% 30.09 in 10.0 mi ENE 5.8 mph - N/A   Overcast
11:59 PM 62.6 °F 60.8 °F 94% 30.09 in 10.0 mi NE 5.8 mph - N/A   Overcast